QPF
0.00 0.00 0.00 0.00 0.00 0.00 0.00 0.00 0.00 0.00 0.00 0.00 0.00 0.00 0.00 0.00 0.00 0.00 0.00 0.00 0.00 0.00 0.00 0.00 0.00 0.00 0.00 0.00 0.00 0.00 0.00 0.00 0.00 0.00 0.00 0.00 0.00 0.00 0.00 0.00 0.00 0.00 0.00 0.00 0.00 0.00 0.00 0.00 0.00 0.00 0.00 0.00 0.00 0.00
0.00 0.00 0.00 0.00 0.00 0.00 0.00 0.00 0.00 0.00 0.00 0.00 0.00 0.00 0.00 0.00 0.00 0.00 0.00 0.00 0.00 0.00 0.00 0.00 0.00 0.00 0.00 0.00 0.00 0.00 0.00 0.00 0.00 0.00 0.00 0.00 0.00 0.00 0.00 0.00 0.00 0.00 0.00 0.00 0.00 0.00 0.00 0.00 0.00 0.00 0.00 0.00 0.00 0.00
0.00 0.00 0.00 0.00 0.00 0.00 0.00 0.00 0.00 0.00 0.00 0.00 0.00 0.00 0.00 0.00 0.00 0.00 0.00 0.00 0.00 0.00 0.00 0.00 0.00 0.00 0.00 0.00 0.00 0.00 0.00 0.00 0.00 0.00 0.00 0.00 0.00 0.00 0.00 0.00 0.00 0.00 0.00 0.00 0.00 0.00 0.00 0.00 0.00 0.00 0.00 0.00 0.00 0.00
0.00 0.00 0.00 0.00 0.00 0.00 0.00 0.00 0.00 0.00 0.00 0.00 0.00 0.00 0.00 0.00 0.00 0.00 0.00 0.00 0.00 0.00 0.00 0.00 0.00 0.00 0.00 0.00 0.00 0.00 0.00 0.00 0.00 0.00 0.00 0.00 0.00 0.00 0.00 0.00 0.00 0.00 0.00 0.00 0.00 0.00 0.00 0.00 0.00 0.00 0.00 0.00 0.00 0.00
0.00 0.00 0.00 0.00 0.00 0.00 0.00 0.00 0.00 0.00 0.00 0.00 0.00 0.00 0.00 0.00 0.00 0.00 0.00 0.00 0.00 0.00 0.00 0.00 0.00 0.00 0.00 0.00 0.00 0.00 0.00 0.00 0.00 0.00 0.00 0.00 0.00 0.00 0.00 0.00 0.00 0.00 0.00 0.00 0.00 0.00 0.00 0.00 0.00 0.00 0.00 0.00 0.00 0.00
0.00 0.00 0.00 0.00 0.00 0.00 0.00 0.00 0.00 0.00 0.00 0.00 0.00 0.00 0.00 0.00 0.00 0.00 0.00 0.00 0.00 0.00 0.00 0.00 0.00 0.00 0.00 0.00 0.00 0.00 0.00 0.00 0.00 0.00 0.00 0.00 0.00 0.00 0.00 0.00 0.00 0.00 0.00 0.00 0.00 0.00 0.00 0.00 0.00 0.00 0.00 0.00 0.00 0.00
0.00 0.00 0.00 0.00 0.00 0.00 0.00 0.00 0.00 0.00 0.00 0.00 0.00 0.00 0.00 0.00 0.00 0.00 0.00 0.00 0.00 0.00 0.00 0.00 0.00 0.00 0.00 0.00 0.00 0.00 0.00 0.00 0.00 0.00 0.00 0.00 0.00 0.00 0.00 0.00 0.00 0.00 0.00 0.00 0.00 0.00 0.00 0.00 0.00 0.00 0.00 0.00 0.00 0.00
0.00 0.00 0.00 0.00 0.00 0.00 0.00 0.00 0.00 0.00 0.00 0.00 0.00 0.00 0.00 0.00 0.00 0.00 0.00 0.00 0.00 0.00 0.00 0.00 0.00 0.00 0.00 0.00 0.00 0.00 0.00 0.00 0.00 0.00 0.00 0.00 0.00 0.00 0.00 0.00 0.00 0.00 0.00 0.00 0.00 0.00 0.00 0.00 0.00 0.00 0.00 0.00 0.00 0.00
0.00 0.00 0.00 0.00 0.00 0.00 0.00 0.00 0.00 0.00 0.00 0.00 0.00 0.00 0.00 0.00 0.00 0.00 0.00 0.00 0.00 0.00 0.00 0.00 0.00 0.00 0.00 0.00 0.00 0.00 0.00 0.00 0.00 0.00 0.00 0.00 0.00 0.00 0.00 0.00 0.00 0.00 0.00 0.00 0.00 0.00 0.00 0.00 0.00 0.00 0.00 0.00 0.00 0.00
0.00 0.00 0.00 0.00 0.00 0.00 0.00 0.00 0.00 0.00 0.00 0.00 0.00 0.00 0.00 0.00 0.00 0.00 0.00 0.00 0.00 0.00 0.00 0.00 0.00 0.00 0.00 0.00 0.00 0.00 0.00 0.00 0.00 0.00 0.00 0.00 0.00 0.00 0.00 0.00 0.00 0.00 0.00 0.00 0.00 0.00 0.00 0.00 0.00 0.00 0.00 0.00 0.00 0.00
0.00 0.00 0.00 0.00 0.00 0.00 0.00 0.00 0.00 0.00 0.00 0.00 0.00 0.00 0.00 0.00 0.00 0.00 0.00 0.00 0.00 0.00 0.00 0.00 0.00 0.00 0.00 0.00 0.00 0.00 0.00 0.00 0.00 0.00 0.00 0.00 0.00 0.00 0.00 0.00 0.00 0.00 0.00 0.00 0.00 0.00 0.00 0.00 0.00 0.00 0.00 0.00 0.00 0.00
0.00 0.00 0.00 0.00 0.00 0.00 0.00 0.00 0.00 0.00 0.00 0.00 0.00 0.00 0.00 0.00 0.00 0.00 0.00 0.00 0.00 0.00 0.00 0.00 0.00 0.00 0.00 0.00 0.00 0.00 0.00 0.00 0.00 0.00 0.01 0.00 0.00 0.00 0.00 0.00 0.00 0.00 0.00 0.00 0.00 0.00 0.00 0.00 0.00 0.00 0.00 0.00 0.00 0.00
0.00 0.00 0.00 0.00 0.00 0.00 0.00 0.00 0.00 0.00 0.00 0.00 0.00 0.00 0.00 0.00 0.00 0.00 0.00 0.00 0.00 0.00 0.00 0.00 0.00 0.00 0.00 0.00 0.00 0.00 0.00 0.00 0.00 0.00 0.00 0.00 0.00 0.00 0.00 0.00 0.00 0.00 0.00 0.00 0.00 0.00 0.00 0.00 0.00 0.00 0.00 0.00 0.00 0.00
0.00 0.00 0.00 0.00 0.00 0.00 0.00 0.00 0.00 0.00 0.00 0.00 0.00 0.00 0.00 0.00 0.00 0.00 0.00 0.00 0.00 0.00 0.00 0.00 0.00 0.00 0.00 0.00 0.00 0.00 0.00 0.00 0.00 0.00 0.00 0.00 0.00 0.00 0.00 0.00 0.00 0.00 0.00 0.00 0.00 0.00 0.00 0.00 0.00 0.00 0.00 0.00 0.00 0.00
0.00 0.00 0.00 0.00 0.00 0.00 0.00 0.00 0.00 0.00 0.00 0.00 0.00 0.00 0.00 0.00 0.00 0.00 0.00 0.00 0.00 0.00 0.00 0.00 0.00 0.00 0.00 0.00 0.00 0.00 0.00 0.00 0.00 0.00 0.00 0.00 0.00 0.01 0.02 0.00 0.00 0.00 0.00 0.00 0.00 0.00 0.00 0.00 0.00 0.00 0.00 0.00 0.00 0.00
0.00 0.00 0.00 0.00 0.00 0.00 0.00 0.00 0.00 0.00 0.00 0.00 0.00 0.00 0.00 0.00 0.00 0.00 0.00 0.00 0.00 0.00 0.00 0.00 0.00 0.00 0.00 0.00 0.00 0.00 0.00 0.00 0.00 0.01 0.01 0.05 0.04 0.03 0.02 0.00 0.00 0.00 0.00 0.00 0.00 0.00 0.00 0.00 0.00 0.00 0.00 0.00 0.00 0.00
0.00 0.00 0.00 0.00 0.00 0.00 0.00 0.00 0.00 0.00 0.00 0.00 0.00 0.00 0.00 0.00 0.00 0.00 0.00 0.00 0.00 0.00 0.00 0.00 0.00 0.00 0.00 0.00 0.00 0.00 0.00 0.00 0.00 0.04 0.09 0.12 0.10 0.05 0.02 0.00 0.00 0.00 0.00 0.00 0.00 0.00 0.00 0.00 0.00 0.00 0.00 0.00 0.00 0.00
0.00 0.00 0.00 0.00 0.00 0.00 0.00 0.00 0.00 0.00 0.00 0.00 0.00 0.00 0.00 0.00 0.00 0.00 0.00 0.00 0.00 0.00 0.00 0.00 0.00 0.00 0.00 0.00 0.00 0.01 0.01 0.00 0.00 0.00 0.01 0.02 0.02 0.03 0.07 0.05 0.01 0.00 0.00 0.00 0.00 0.00 0.00 0.00 0.00 0.00 0.00 0.00 0.00 0.00
0.00 0.00 0.00 0.00 0.00 0.00 0.00 0.00 0.00 0.00 0.00 0.00 0.00 0.00 0.00 0.00 0.00 0.00 0.00 0.00 0.00 0.00 0.00 0.00 0.00 0.00 0.00 0.00 0.00 0.00 0.01 0.00 0.00 0.00 0.00 0.00 0.02 0.04 0.09 0.07 0.07 0.05 0.01 0.00 0.00 0.00 0.00 0.00 0.00 0.00 0.00 0.00 0.00 0.00
0.00 0.00 0.00 0.00 0.00 0.00 0.00 0.00 0.00 0.00 0.00 0.00 0.00 0.00 0.00 0.00 0.00 0.00 0.00 0.00 0.00 0.00 0.00 0.00 0.00 0.00 0.00 0.00 0.00 0.00 0.00 0.00 0.00 0.00 0.00 0.05 0.04 0.04 0.02 0.03 0.12 0.06 0.02 0.04 0.03 0.00 0.00 0.00 0.00 0.00 0.00 0.00 0.00 0.00
0.00 0.01 0.00 0.00 0.00 0.00 0.00 0.00 0.00 0.00 0.00 0.00 0.00 0.00 0.00 0.00 0.00 0.00 0.00 0.00 0.00 0.00 0.00 0.00 0.00 0.00 0.00 0.00 0.00 0.00 0.01 0.01 0.02 0.03 0.02 0.02 0.01 0.01 0.01 0.00 0.01 0.01 0.01 0.00 0.02 0.00 0.00 0.00 0.00 0.00 0.00 0.00 0.00 0.00
0.00 0.00 0.00 0.00 0.00 0.00 0.00 0.00 0.00 0.00 0.00 0.00 0.00 0.00 0.00 0.00 0.00 0.00 0.00 0.00 0.00 0.00 0.00 0.00 0.00 0.00 0.00 0.00 0.00 0.00 0.00 0.00 0.01 0.02 0.01 0.02 0.03 0.01 0.01 0.00 0.00 0.01 0.02 0.01 0.00 0.00 0.00 0.00 0.00 0.00 0.00 0.00 0.00 0.00
0.00 0.00 0.00 0.00 0.00 0.00 0.00 0.00 0.00 0.00 0.00 0.00 0.00 0.00 0.00 0.00 0.00 0.00 0.00 0.00 0.00 0.00 0.00 0.00 0.00 0.00 0.00 0.00 0.00 0.00 0.00 0.00 0.00 0.00 0.00 0.00 0.00 0.00 0.00 0.00 0.00 0.00 0.00 0.02 0.02 0.01 0.00 0.00 0.00 0.00 0.00 0.00 0.00 0.00
0.00 0.00 0.00 0.00 0.00 0.00 0.00 0.01 0.00 0.00 0.00 0.00 0.00 0.00 0.00 0.00 0.00 0.00 0.00 0.00 0.00 0.00 0.00 0.00 0.00 0.00 0.00 0.00 0.00 0.00 0.00 0.00 0.00 0.00 0.00 0.00 0.00 0.00 0.00 0.00 0.00 0.00 0.00 0.00 0.00 0.00 0.00 0.00 0.00 0.00 0.00 0.00 0.00 0.00
0.00 0.00 0.00 0.00 0.00 0.00 0.01 0.00 0.00 0.00 0.00 0.00 0.00 0.00 0.00 0.00 0.00 0.00 0.00 0.00 0.00 0.00 0.00 0.00 0.00 0.00 0.00 0.00 0.00 0.00 0.00 0.00 0.01 0.01 0.00 0.00 0.00 0.00 0.00 0.00 0.00 0.00 0.00 0.00 0.00 0.00 0.00 0.00 0.00 0.00 0.00 0.00 0.00 0.00
0.00 0.00 0.00 0.00 0.00 0.00 0.00 0.00 0.00 0.00 0.00 0.00 0.01 0.00 0.01 0.00 0.00 0.00 0.01 0.01 0.00 0.00 0.00 0.00 0.00 0.00 0.00 0.00 0.00 0.00 0.00 0.00 0.00 0.00 0.00 0.00 0.00 0.01 0.01 0.00 0.00 0.00 0.00 0.00 0.00 0.00 0.00 0.00 0.00 0.00 0.00 0.00 0.00 0.00
0.00 0.00 0.00 0.00 0.00 0.01 0.00 0.00 0.00 0.00 0.01 0.02 0.01 0.00 0.00 0.01 0.02 0.02 0.02 0.00 0.00 0.00 0.01 0.02 0.01 0.00 0.01 0.04 0.02 0.01 0.04 0.04 0.02 0.01 0.00 0.00 0.00 0.00 0.00 0.00 0.00 0.00 0.00 0.00 0.00 0.00 0.00 0.00 0.00 0.00 0.00 0.00 0.00 0.00
0.00 0.00 0.00 0.00 0.00 0.00 0.00 0.00 0.00 0.00 0.00 0.01 0.02 0.04 0.04 0.05 0.03 0.00 0.00 0.00 0.03 0.06 0.08 0.07 0.06 0.03 0.02 0.01 0.02 0.05 0.05 0.02 0.00 0.01 0.01 0.00 0.00 0.00 0.00 0.00 0.00 0.00 0.00 0.00 0.00 0.00 0.00 0.00 0.00 0.00 0.00 0.00 0.00 0.00
0.00 0.00 0.00 0.00 0.00 0.00 0.00 0.00 0.00 0.00 0.00 0.00 0.01 0.01 0.01 0.00 0.00 0.00 0.00 0.00 0.04 0.03 0.02 0.01 0.03 0.02 0.02 0.00 0.06 0.08 0.07 0.04 0.03 0.03 0.04 0.01 0.00 0.00 0.00 0.00 0.00 0.00 0.00 0.00 0.00 0.00 0.00 0.00 0.00 0.00 0.00 0.00 0.00 0.00
0.00 0.00 0.00 0.00 0.00 0.00 0.00 0.00 0.00 0.00 0.00 0.00 0.00 0.00 0.00 0.00 0.00 0.00 0.00 0.00 0.00 0.00 0.00 0.00 0.00 0.00 0.00 0.01 0.02 0.03 0.05 0.05 0.06 0.06 0.04 0.04 0.01 0.00 0.00 0.00 0.00 0.00 0.00 0.00 0.00 0.00 0.00 0.00 0.00 0.00 0.00 0.00 0.00 0.00
0.00 0.00 0.00 0.00 0.00 0.00 0.00 0.00 0.00 0.00 0.00 0.00 0.00 0.00 0.00 0.00 0.00 0.00 0.00 0.00 0.00 0.00 0.00 0.00 0.00 0.00 0.00 0.00 0.00 0.00 0.01 0.01 0.03 0.04 0.01 0.03 0.03 0.02 0.01 0.01 0.00 0.00 0.00 0.00 0.00 0.00 0.00 0.00 0.00 0.00 0.00 0.00 0.00 0.00
0.00 0.00 0.00 0.00 0.00 0.00 0.00 0.00 0.00 0.00 0.00 0.00 0.00 0.00 0.00 0.00 0.00 0.00 0.00 0.00 0.00 0.00 0.00 0.00 0.00 0.00 0.00 0.00 0.00 0.00 0.00 0.00 0.03 0.02 0.04 0.04 0.01 0.02 0.01 0.02 0.01 0.01 0.00 0.00 0.00 0.00 0.00 0.00 0.00 0.00 0.00 0.00 0.00 0.00
0.00 0.00 0.00 0.00 0.00 0.00 0.00 0.00 0.00 0.00 0.00 0.00 0.00 0.00 0.00 0.00 0.00 0.01 0.00 0.01 0.00 0.01 0.01 0.00 0.00 0.00 0.00 0.00 0.00 0.00 0.00 0.00 0.00 0.02 0.07 0.05 0.01 0.02 0.01 0.00 0.00 0.00 0.00 0.00 0.00 0.00 0.00 0.00 0.00 0.00 0.00 0.00 0.00 0.00
MSLP
1023.40 1023.29 1023.14 1023.07 1023.00 1022.92 1022.78 1022.57 1022.29 1021.94 1021.57 1021.17 1020.76 1020.33 1019.89 1019.37 1018.75 1018.47 1017.26 1016.21 1016.49 1016.39 1014.77 1013.26 1012.72 1012.58 1012.60 1012.90 1013.37 1013.00 1012.98 1013.06 1013.55 1014.43 1014.81 1014.73 1014.20 1013.97 1014.13 1014.42 1014.87 1016.00 1017.01 1017.79 1018.13 1018.47 1018.65 1017.92 1017.59 1018.29 1019.22 1018.80 1018.83 1018.67
1022.99 1022.94 1022.81 1022.68 1022.63 1022.57 1022.49 1022.36 1022.16 1021.85 1021.50 1021.15 1020.79 1020.36 1019.91 1019.43 1018.92 1018.33 1017.92 1016.24 1016.22 1016.54 1015.00 1013.51 1012.70 1012.11 1012.09 1012.31 1012.91 1013.33 1013.92 1014.09 1014.49 1015.09 1015.30 1015.23 1015.14 1014.84 1015.28 1015.58 1015.66 1016.66 1017.05 1017.64 1018.57 1018.63 1018.56 1018.40 1018.66 1018.91 1019.14 1019.17 1018.93 1018.68
1022.58 1022.55 1022.45 1022.32 1022.26 1022.24 1022.19 1022.09 1021.95 1021.74 1021.45 1021.12 1020.77 1020.37 1019.99 1019.60 1019.22 1019.03 1018.70 1017.70 1016.82 1016.55 1015.16 1014.01 1012.68 1012.07 1011.94 1012.07 1012.18 1013.40 1013.85 1013.78 1014.19 1014.35 1015.13 1015.47 1015.55 1015.51 1016.06 1016.20 1016.49 1016.89 1017.06 1017.88 1018.58 1018.94 1018.76 1018.76 1018.69 1018.81 1018.79 1018.84 1018.68 1018.50
1022.17 1022.10 1022.03 1021.92 1021.88 1021.91 1021.88 1021.81 1021.69 1021.53 1021.30 1021.05 1020.74 1020.37 1019.98 1019.59 1019.22 1019.03 1019.13 1017.93 1017.72 1017.41 1016.68 1014.44 1012.50 1012.21 1011.86 1011.76 1012.12 1012.60 1013.09 1013.36 1013.81 1014.41 1015.21 1015.56 1015.73 1015.29 1016.06 1016.14 1016.82 1017.16 1017.53 1018.18 1018.55 1018.44 1018.41 1018.14 1018.45 1018.66 1018.75 1018.73 1018.62 1018.44
1021.79 1021.69 1021.61 1021.52 1021.52 1021.56 1021.56 1021.50 1021.42 1021.31 1021.10 1020.89 1020.63 1020.30 1019.90 1019.46 1018.96 1018.55 1018.62 1017.96 1017.69 1017.92 1017.45 1015.65 1013.85 1012.41 1012.09 1012.10 1012.27 1012.49 1013.10 1013.91 1014.72 1015.20 1015.74 1015.87 1015.47 1015.71 1016.06 1016.54 1017.36 1017.18 1017.73 1018.21 1018.27 1018.40 1018.62 1018.49 1018.60 1018.62 1018.62 1018.72 1018.55 1018.18
1021.36 1021.28 1021.20 1021.14 1021.19 1021.25 1021.27 1021.20 1021.13 1021.04 1020.88 1020.70 1020.46 1020.14 1019.80 1019.50 1018.94 1018.41 1018.51 1017.89 1017.77 1018.21 1017.87 1016.69 1014.01 1012.79 1012.58 1012.47 1012.67 1012.97 1013.43 1014.08 1014.67 1015.40 1015.62 1015.44 1015.02 1015.42 1016.70 1017.23 1017.13 1017.02 1017.14 1017.39 1017.72 1017.75 1017.98 1018.05 1018.38 1018.55 1018.59 1018.38 1018.08 1017.74
1020.92 1020.82 1020.75 1020.77 1020.86 1020.95 1021.01 1020.97 1020.88 1020.75 1020.58 1020.40 1020.19 1019.92 1019.62 1019.50 1019.62 1019.17 1018.72 1017.94 1017.83 1018.41 1018.04 1017.20 1015.33 1013.17 1012.76 1012.96 1013.35 1013.72 1013.72 1014.24 1014.73 1015.23 1015.42 1015.54 1015.38 1015.55 1016.46 1017.11 1016.93 1016.98 1016.93 1016.99 1017.17 1017.46 1017.84 1018.21 1018.40 1018.37 1018.47 1018.29 1018.06 1017.50
1020.55 1020.45 1020.42 1020.48 1020.59 1020.70 1020.77 1020.78 1020.71 1020.53 1020.36 1020.16 1019.92 1019.60 1019.23 1018.92 1018.91 1018.59 1017.47 1017.21 1017.94 1018.26 1018.03 1017.69 1016.05 1014.19 1013.13 1013.84 1014.37 1014.03 1014.56 1014.80 1014.81 1014.99 1015.23 1015.40 1015.55 1015.79 1016.44 1016.39 1016.56 1016.77 1016.74 1016.79 1016.90 1017.28 1017.70 1017.99 1018.31 1018.31 1018.23 1018.21 1017.96 1017.44
1020.29 1020.23 1020.25 1020.31 1020.40 1020.49 1020.55 1020.57 1020.51 1020.38 1020.19 1019.95 1019.61 1019.16 1019.06 1018.74 1018.35 1017.69 1017.25 1017.41 1017.69 1018.40 1018.19 1017.78 1016.87 1015.13 1013.52 1014.00 1014.45 1014.42 1014.56 1015.29 1015.07 1015.22 1015.21 1015.34 1015.58 1015.78 1015.57 1016.17 1016.24 1016.25 1016.29 1016.56 1016.94 1017.41 1017.66 1017.75 1018.01 1018.25 1018.31 1018.27 1018.14 1017.62
1020.04 1020.00 1020.06 1020.13 1020.21 1020.30 1020.37 1020.39 1020.31 1020.22 1019.99 1019.76 1019.58 1019.30 1018.74 1017.81 1017.11 1017.44 1017.37 1017.63 1017.80 1017.93 1017.99 1017.78 1016.47 1015.60 1014.71 1014.76 1014.96 1015.31 1015.20 1015.55 1015.69 1015.02 1014.83 1015.14 1015.19 1014.75 1014.69 1014.96 1015.33 1015.59 1015.84 1016.19 1016.95 1017.35 1017.56 1017.68 1017.88 1018.05 1018.09 1018.20 1018.14 1017.97
1019.79 1019.78 1019.86 1019.93 1020.01 1020.13 1020.22 1020.24 1020.22 1020.10 1019.67 1019.82 1019.88 1019.43 1018.02 1017.38 1017.42 1017.63 1017.78 1017.80 1017.64 1017.69 1017.24 1016.61 1016.09 1015.80 1014.72 1015.08 1015.38 1015.41 1015.78 1015.79 1015.98 1015.13 1014.99 1015.21 1014.99 1014.37 1014.42 1014.77 1015.02 1015.21 1015.47 1015.83 1016.18 1016.58 1016.86 1017.09 1017.46 1017.74 1017.82 1017.92 1017.94 1017.96
1019.54 1019.60 1019.71 1019.76 1019.83 1019.98 1020.09 1020.15 1020.18 1020.29 1020.21 1020.41 1020.41 1019.59 1018.69 1018.01 1017.97 1018.06 1017.66 1017.10 1016.90 1016.31 1015.82 1015.46 1015.27 1015.14 1014.93 1014.63 1015.31 1015.62 1015.74 1015.84 1015.59 1014.93 1015.17 1014.91 1013.98 1013.70 1014.05 1014.42 1014.87 1015.02 1015.35 1016.00 1016.07 1016.32 1016.45 1016.64 1016.82 1017.19 1017.44 1017.58 1017.68 1017.82
1019.30 1019.37 1019.52 1019.63 1019.72 1019.87 1020.01 1020.11 1020.14 1020.17 1019.95 1019.98 1020.22 1019.78 1019.34 1018.74 1018.67 1017.99 1017.23 1016.37 1015.92 1015.11 1014.83 1014.74 1015.06 1015.05 1014.97 1015.17 1015.69 1016.00 1016.08 1016.03 1015.33 1015.29 1014.96 1014.11 1013.63 1013.75 1014.01 1014.32 1014.60 1014.76 1015.18 1015.60 1015.97 1016.05 1016.18 1016.36 1016.47 1016.82 1017.01 1017.12 1017.14 1017.50
1019.05 1019.14 1019.29 1019.46 1019.61 1019.80 1019.97 1020.07 1020.12 1020.13 1020.34 1020.39 1020.22 1020.22 1019.64 1018.74 1017.76 1016.80 1016.00 1015.27 1014.47 1014.19 1014.33 1014.64 1015.11 1015.20 1015.43 1015.76 1015.95 1016.36 1016.00 1015.74 1015.65 1015.45 1014.44 1013.58 1013.33 1013.46 1013.71 1014.06 1014.43 1014.82 1015.09 1015.44 1015.66 1015.82 1015.94 1016.00 1016.14 1016.30 1016.51 1016.56 1016.87 1017.09
1018.74 1018.91 1019.10 1019.33 1019.51 1019.73 1019.92 1020.06 1020.10 1020.11 1020.24 1020.40 1020.30 1019.88 1018.96 1017.64 1016.76 1016.06 1014.92 1014.53 1014.08 1013.93 1014.36 1014.84 1015.38 1015.62 1015.90 1016.01 1016.01 1016.19 1016.12 1015.76 1015.34 1014.69 1013.95 1013.14 1013.13 1013.37 1013.84 1014.09 1014.39 1014.68 1014.97 1015.41 1015.54 1015.67 1015.68 1015.71 1015.88 1015.90 1015.82 1015.89 1016.26 1016.55
1018.49 1018.69 1018.77 1018.93 1019.33 1019.69 1020.00 1020.15 1020.16 1020.22 1020.21 1020.33 1020.08 1019.51 1018.30 1017.83 1017.11 1016.25 1015.41 1014.88 1014.30 1014.27 1014.52 1015.01 1015.94 1016.26 1016.51 1016.30 1016.10 1015.91 1015.78 1015.19 1014.65 1014.15 1013.56 1013.34 1013.43 1013.56 1013.77 1013.88 1014.16 1014.40 1014.64 1014.98 1015.36 1015.42 1015.40 1015.48 1015.59 1015.68 1015.55 1015.62 1015.73 1015.93
1018.27 1018.13 1018.20 1018.70 1019.24 1019.86 1020.17 1020.33 1020.42 1020.53 1020.48 1020.32 1019.68 1018.89 1018.62 1018.04 1017.45 1016.47 1015.73 1015.14 1014.52 1014.80 1015.30 1015.53 1016.13 1015.99 1015.87 1015.79 1015.53 1014.89 1014.83 1014.64 1014.54 1014.06 1013.54 1013.57 1014.20 1014.23 1013.69 1013.62 1013.86 1014.25 1014.36 1014.79 1015.05 1015.17 1015.19 1015.09 1015.33 1015.57 1015.64 1015.52 1015.24 1015.31
1017.80 1017.68 1018.17 1018.68 1019.23 1019.98 1020.46 1020.51 1020.62 1020.66 1020.52 1019.90 1019.75 1018.69 1018.15 1017.50 1016.95 1016.39 1015.60 1015.11 1014.96 1014.91 1015.01 1015.13 1015.19 1015.55 1015.40 1015.21 1014.84 1014.90 1014.81 1014.67 1014.95 1014.46 1013.75 1013.38 1013.52 1013.29 1013.78 1013.73 1013.68 1013.93 1014.08 1014.30 1014.49 1014.73 1014.97 1014.92 1015.02 1015.26 1015.24 1015.18 1015.04 1015.05
1017.27 1017.70 1018.16 1018.69 1019.04 1019.70 1020.35 1020.75 1020.74 1020.61 1019.97 1019.54 1018.83 1018.31 1017.98 1017.16 1016.42 1015.97 1015.65 1015.05 1014.68 1014.59 1014.66 1014.96 1015.09 1015.02 1015.04 1014.68 1014.66 1014.60 1014.64 1014.96 1014.93 1014.16 1013.87 1013.44 1013.13 1013.48 1013.49 1013.37 1013.41 1013.62 1013.89 1013.94 1014.13 1014.24 1014.39 1014.37 1014.41 1014.57 1014.61 1014.90 1015.00 1014.90
1017.30 1017.96 1018.53 1018.87 1019.07 1019.46 1020.23 1020.73 1020.67 1020.45 1019.72 1018.77 1018.16 1017.60 1017.29 1016.47 1015.76 1015.47 1015.24 1015.00 1014.84 1014.75 1014.53 1014.61 1014.71 1014.30 1014.32 1014.38 1014.13 1014.14 1014.19 1014.48 1014.30 1014.18 1013.87 1013.58 1012.77 1012.89 1012.59 1012.82 1012.98 1013.19 1013.46 1013.67 1013.82 1013.84 1013.96 1014.14 1014.13 1013.98 1014.18 1014.40 1014.57 1014.59
1017.84 1018.54 1018.97 1018.99 1019.28 1019.44 1019.67 1020.03 1020.14 1019.77 1019.08 1018.31 1017.15 1016.82 1016.26 1015.50 1015.34 1015.21 1014.96 1014.55 1014.57 1014.33 1014.09 1013.85 1013.86 1013.57 1013.31 1013.22 1013.10 1012.76 1013.76 1013.82 1013.86 1013.71 1013.64 1013.74 1012.85 1012.87 1012.66 1012.46 1012.56 1012.56 1013.11 1013.21 1013.38 1013.36 1013.42 1013.76 1013.66 1013.47 1013.56 1013.85 1013.79 1013.76
1018.03 1018.37 1018.97 1019.33 1019.44 1019.65 1019.62 1019.37 1019.34 1018.91 1018.63 1017.55 1016.78 1015.97 1015.76 1015.38 1015.04 1014.53 1014.04 1014.33 1013.96 1013.36 1013.28 1013.22 1013.12 1013.13 1013.07 1012.85 1012.65 1012.65 1012.75 1012.92 1012.86 1013.01 1013.05 1012.94 1012.96 1012.81 1012.50 1012.12 1012.28 1012.42 1012.37 1012.35 1012.41 1012.54 1012.52 1012.73 1012.77 1013.01 1013.16 1013.21 1013.24 1013.27
1017.98 1018.50 1019.00 1019.23 1019.49 1019.63 1019.32 1018.74 1019.03 1018.34 1017.91 1016.71 1015.56 1015.19 1014.84 1014.43 1013.86 1013.41 1013.87 1013.22 1012.60 1011.89 1011.81 1011.98 1011.88 1011.80 1011.94 1011.78 1011.91 1011.86 1011.81 1011.85 1012.24 1011.93 1011.77 1012.12 1011.68 1011.51 1011.37 1011.31 1011.41 1011.56 1011.78 1011.75 1011.41 1011.61 1012.08 1012.03 1012.29 1012.53 1012.76 1012.92 1012.91 1013.06
1017.89 1018.49 1018.92 1019.09 1019.07 1018.99 1018.61 1018.16 1017.95 1017.48 1016.63 1016.03 1015.28 1014.64 1014.22 1013.82 1013.45 1013.57 1013.42 1012.53 1011.54 1011.03 1011.13 1011.02 1011.00 1011.23 1011.30 1011.33 1011.43 1011.33 1011.07 1011.00 1011.23 1011.00 1011.04 1011.00 1010.98 1010.85 1010.66 1010.53 1010.40 1010.59 1010.78 1010.62 1010.71 1010.87 1011.32 1011.73 1011.75 1012.30 1012.45 1012.51 1012.55 1012.83
1018.44 1018.94 1018.95 1018.72 1018.52 1018.34 1017.35 1016.73 1016.50 1016.21 1015.49 1014.94 1014.58 1014.14 1013.68 1013.30 1013.54 1013.50 1013.05 1012.30 1011.72 1011.25 1010.94 1010.42 1010.34 1010.43 1010.53 1010.51 1010.48 1010.20 1009.87 1010.10 1010.24 1010.19 1009.78 1009.63 1009.97 1010.01 1010.11 1010.09 1010.08 1009.87 1009.61 1009.96 1010.31 1010.44 1010.87 1011.15 1011.47 1011.79 1012.00 1012.18 1012.20 1012.33
1017.88 1017.97 1018.02 1017.41 1017.10 1016.89 1015.98 1015.26 1014.88 1014.75 1014.48 1014.21 1013.71 1013.05 1012.72 1013.06 1013.22 1012.95 1012.52 1012.02 1011.37 1010.76 1010.53 1010.45 1010.42 1010.17 1009.89 1009.56 1009.55 1009.34 1008.89 1008.78 1009.01 1009.22 1008.88 1008.62 1008.76 1009.00 1009.44 1009.56 1009.59 1009.08 1008.77 1008.69 1009.28 1010.01 1010.47 1010.72 1011.08 1011.43 1011.62 1011.69 1011.63 1011.85
1017.21 1016.65 1016.48 1015.93 1015.58 1015.22 1015.02 1014.43 1014.10 1014.07 1013.81 1013.22 1012.67 1012.48 1012.46 1012.54 1012.35 1012.33 1011.67 1010.94 1010.75 1010.04 1009.83 1009.81 1009.87 1009.63 1009.42 1009.14 1008.85 1008.60 1008.38 1008.07 1008.12 1008.35 1008.35 1008.19 1008.17 1008.37 1008.38 1008.48 1008.58 1007.98 1007.86 1008.30 1008.67 1009.06 1009.69 1010.17 1010.47 1010.68 1010.97 1011.18 1011.29 1011.44
1016.35 1015.64 1015.28 1015.06 1014.96 1014.61 1014.59 1014.26 1013.94 1013.42 1012.91 1012.52 1012.25 1011.85 1011.85 1011.88 1011.79 1011.16 1010.65 1010.07 1009.51 1009.25 1009.08 1009.05 1009.01 1008.73 1008.37 1007.88 1007.51 1008.30 1008.98 1009.07 1008.75 1008.62 1008.29 1007.97 1007.39 1007.54 1007.36 1007.40 1007.74 1007.78 1008.02 1008.26 1008.51 1008.84 1009.12 1009.43 1009.76 1009.98 1010.19 1010.59 1010.93 1010.99
1015.73 1014.90 1014.57 1014.40 1014.36 1014.13 1013.84 1013.59 1013.31 1012.61 1011.95 1012.01 1012.04 1011.97 1011.57 1011.11 1010.34 1009.98 1009.46 1009.50 1009.40 1009.50 1009.46 1009.06 1008.44 1007.81 1007.87 1007.84 1008.08 1007.70 1007.79 1008.58 1008.56 1007.96 1007.83 1008.07 1008.21 1008.24 1007.70 1007.64 1007.97 1008.15 1008.41 1008.64 1008.58 1008.61 1008.74 1008.99 1009.16 1009.26 1009.61 1009.95 1010.22 1010.44
1014.49 1013.95 1013.98 1013.81 1013.72 1013.44 1012.84 1012.50 1012.28 1011.92 1011.68 1011.43 1011.25 1011.06 1010.78 1010.15 1009.19 1008.67 1008.57 1008.31 1008.52 1008.36 1007.88 1007.55 1007.23 1007.41 1007.37 1007.46 1007.57 1007.97 1008.15 1008.14 1007.94 1008.19 1008.32 1008.44 1008.41 1008.24 1007.89 1007.82 1007.87 1007.91 1008.19 1008.65 1008.86 1008.91 1009.03 1009.12 1009.22 1009.31 1009.51 1009.73 1009.91 1010.12
1013.40 1013.28 1013.36 1013.19 1012.87 1012.24 1011.91 1011.56 1011.36 1011.23 1011.09 1010.78 1010.43 1010.61 1010.16 1009.45 1008.50 1007.88 1007.63 1007.29 1007.12 1007.05 1007.06 1007.14 1006.98 1006.71 1006.78 1006.71 1006.83 1007.08 1007.45 1007.51 1007.58 1007.24 1007.04 1007.42 1007.84 1007.88 1008.05 1007.68 1007.48 1007.76 1007.99 1008.24 1008.39 1008.56 1008.78 1008.83 1008.92 1009.09 1009.22 1009.30 1009.32 1009.55
1012.80 1012.66 1012.52 1012.47 1012.04 1011.33 1011.08 1011.00 1010.74 1010.56 1010.18 1009.96 1009.63 1009.21 1008.99 1008.90 1008.59 1007.91 1007.42 1006.77 1006.60 1006.65 1006.41 1006.34 1006.26 1006.02 1005.52 1005.35 1005.12 1005.22 1005.34 1005.92 1006.42 1006.11 1005.73 1006.17 1006.75 1006.79 1006.93 1006.90 1007.03 1007.46 1007.66 1007.82 1008.09 1008.37 1008.52 1008.46 1008.45 1008.49 1008.61 1008.76 1008.75 1008.81
1012.10 1011.96 1011.98 1012.00 1011.52 1010.95 1010.28 1010.14 1009.75 1009.43 1009.07 1009.01 1008.70 1008.45 1008.46 1008.41 1008.46 1008.70 1007.53 1007.37 1007.28 1006.90 1006.60 1006.05 1005.56 1005.23 1004.85 1004.53 1004.31 1004.29 1004.55 1004.91 1005.01 1005.16 1005.38 1005.81 1005.99 1006.40 1006.83 1006.70 1006.63 1006.80 1006.86 1006.83 1006.77 1007.27 1007.31 1007.43 1007.54 1007.55 1007.61 1007.86 1007.91 1007.80
Thickness
5613 5615 5617 5618 5619 5620 5622 5624 5628 5631 5635 5639 5643 5648 5653 5659 5666 5671 5682 5692 5689 5683 5695 5717 5719 5711 5709 5705 5696 5710 5711 5710 5703 5695 5693 5694 5697 5701 5694 5700 5692 5678 5665 5659 5654 5651 5644 5670 5668 5647 5642 5645 5641 5638
5613 5614 5616 5618 5619 5621 5622 5624 5627 5630 5634 5637 5641 5646 5651 5656 5662 5669 5674 5689 5690 5686 5696 5715 5721 5726 5724 5722 5706 5704 5701 5700 5699 5690 5690 5690 5691 5689 5680 5674 5688 5670 5672 5659 5655 5649 5655 5660 5651 5650 5641 5632 5630 5626
5612 5614 5615 5617 5619 5620 5621 5623 5625 5628 5632 5636 5640 5644 5648 5652 5657 5661 5665 5674 5683 5682 5691 5700 5707 5722 5726 5725 5726 5699 5699 5708 5707 5705 5692 5689 5690 5682 5670 5670 5675 5680 5676 5658 5655 5650 5650 5647 5647 5643 5637 5629 5625 5620
5610 5612 5614 5616 5618 5619 5620 5622 5624 5626 5630 5633 5637 5641 5646 5650 5654 5658 5659 5671 5672 5674 5672 5688 5718 5716 5723 5725 5724 5718 5713 5713 5709 5702 5690 5684 5684 5690 5672 5677 5665 5665 5663 5654 5648 5652 5649 5650 5644 5637 5632 5627 5619 5613
5607 5609 5612 5614 5616 5617 5618 5620 5622 5625 5627 5631 5634 5638 5643 5648 5653 5658 5661 5666 5669 5668 5663 5674 5695 5713 5717 5717 5717 5716 5708 5701 5692 5687 5681 5679 5682 5681 5673 5668 5659 5663 5651 5641 5637 5645 5640 5638 5639 5636 5630 5622 5616 5610
5604 5607 5609 5612 5613 5614 5616 5618 5620 5623 5626 5628 5632 5636 5640 5644 5650 5657 5656 5662 5665 5663 5663 5664 5692 5704 5707 5709 5708 5706 5701 5696 5689 5681 5677 5680 5688 5674 5659 5652 5662 5659 5657 5653 5646 5651 5645 5641 5636 5633 5626 5620 5615 5610
5601 5604 5607 5610 5611 5612 5613 5615 5618 5621 5624 5627 5630 5634 5638 5641 5642 5646 5651 5659 5660 5657 5658 5659 5669 5695 5702 5699 5693 5692 5693 5689 5684 5675 5674 5673 5676 5670 5656 5646 5657 5655 5656 5656 5654 5651 5641 5635 5629 5628 5622 5616 5611 5607
5597 5601 5604 5606 5608 5609 5610 5612 5615 5619 5622 5625 5629 5633 5637 5641 5643 5646 5656 5659 5655 5652 5653 5648 5661 5677 5695 5678 5674 5682 5677 5676 5676 5672 5671 5667 5666 5661 5651 5654 5652 5653 5652 5652 5651 5644 5636 5633 5627 5623 5619 5612 5607 5605
5591 5595 5598 5601 5602 5604 5606 5608 5611 5615 5618 5622 5627 5632 5635 5637 5640 5647 5652 5652 5651 5646 5643 5643 5645 5654 5684 5674 5671 5672 5671 5659 5667 5660 5659 5661 5653 5648 5654 5648 5647 5649 5647 5645 5642 5633 5631 5628 5624 5619 5614 5608 5601 5601
5584 5588 5592 5594 5596 5598 5601 5603 5606 5610 5614 5618 5622 5626 5630 5638 5645 5644 5643 5641 5640 5641 5638 5635 5646 5651 5667 5661 5657 5657 5656 5650 5642 5652 5655 5648 5645 5656 5657 5651 5650 5649 5648 5645 5633 5630 5626 5624 5619 5617 5613 5607 5603 5598
5575 5580 5584 5587 5590 5592 5594 5597 5600 5604 5609 5611 5615 5620 5630 5636 5635 5633 5631 5632 5635 5636 5636 5640 5642 5642 5660 5649 5644 5646 5638 5638 5631 5641 5639 5635 5638 5645 5646 5643 5646 5645 5644 5640 5635 5632 5627 5625 5617 5614 5611 5607 5602 5598
5567 5572 5575 5579 5582 5585 5587 5590 5593 5596 5599 5599 5602 5609 5618 5623 5620 5623 5622 5630 5634 5638 5644 5642 5644 5643 5648 5650 5640 5637 5636 5633 5628 5641 5634 5632 5642 5644 5643 5642 5639 5639 5637 5630 5629 5628 5627 5625 5619 5614 5610 5605 5601 5597
5559 5563 5567 5570 5574 5577 5579 5582 5585 5588 5593 5596 5598 5606 5606 5609 5601 5614 5617 5624 5627 5640 5644 5645 5640 5641 5639 5637 5628 5625 5623 5615 5628 5624 5625 5632 5641 5639 5637 5637 5635 5634 5631 5627 5624 5625 5625 5621 5620 5612 5609 5606 5603 5596
5551 5555 5558 5561 5565 5568 5570 5573 5576 5580 5581 5586 5592 5573 5593 5598 5607 5612 5620 5626 5641 5643 5639 5637 5634 5630 5626 5623 5618 5618 5615 5616 5612 5607 5623 5633 5637 5635 5633 5634 5631 5627 5626 5623 5621 5619 5619 5618 5616 5612 5608 5606 5601 5595
5544 5547 5551 5553 5556 5559 5561 5564 5567 5570 5575 5578 5581 5575 5593 5605 5612 5618 5629 5634 5636 5639 5634 5628 5620 5619 5616 5617 5612 5608 5608 5604 5607 5614 5621 5631 5631 5628 5625 5626 5624 5622 5620 5615 5615 5614 5616 5615 5612 5611 5611 5607 5601 5596
5537 5541 5545 5548 5549 5550 5552 5554 5558 5560 5564 5568 5574 5581 5592 5594 5598 5604 5612 5618 5624 5622 5620 5616 5605 5603 5600 5599 5603 5601 5600 5604 5611 5616 5622 5625 5623 5622 5620 5623 5620 5618 5616 5612 5609 5610 5611 5610 5608 5607 5607 5605 5602 5597
5532 5538 5540 5541 5541 5541 5542 5544 5547 5550 5555 5563 5565 5573 5575 5582 5585 5595 5605 5609 5614 5608 5602 5600 5592 5591 5595 5594 5595 5601 5600 5603 5606 5611 5619 5619 5614 5612 5617 5619 5618 5613 5613 5608 5606 5606 5607 5608 5605 5602 5602 5601 5602 5599
5529 5532 5532 5533 5533 5531 5532 5535 5538 5541 5548 5552 5553 5564 5574 5581 5585 5588 5594 5602 5601 5599 5597 5594 5596 5590 5590 5593 5593 5591 5596 5597 5595 5600 5608 5615 5613 5614 5611 5611 5614 5610 5608 5607 5607 5605 5602 5603 5602 5598 5599 5598 5598 5597
5522 5523 5525 5525 5527 5526 5525 5524 5530 5537 5545 5547 5555 5558 5563 5571 5579 5583 5585 5590 5595 5594 5591 5586 5585 5584 5582 5584 5588 5590 5590 5587 5585 5594 5598 5602 5606 5604 5605 5608 5608 5606 5604 5605 5604 5602 5600 5601 5601 5600 5598 5594 5593 5592
5514 5513 5513 5516 5519 5521 5518 5519 5522 5526 5538 5547 5552 5554 5561 5569 5576 5579 5580 5582 5581 5579 5580 5578 5577 5578 5577 5577 5579 5582 5583 5583 5585 5587 5590 5593 5601 5600 5605 5604 5604 5603 5603 5602 5600 5600 5599 5597 5598 5599 5596 5593 5591 5589
5502 5502 5504 5509 5511 5514 5517 5516 5517 5524 5531 5538 5552 5557 5560 5568 5569 5569 5570 5573 5573 5574 5576 5574 5573 5576 5577 5578 5581 5585 5577 5578 5578 5581 5584 5582 5593 5594 5598 5599 5602 5604 5596 5596 5597 5599 5597 5595 5596 5597 5596 5592 5590 5590
5494 5495 5496 5497 5502 5503 5507 5514 5518 5525 5527 5535 5544 5555 5558 5559 5561 5564 5568 5563 5562 5569 5566 5567 5570 5568 5565 5568 5572 5573 5573 5575 5577 5578 5579 5582 5581 5585 5587 5593 5595 5595 5596 5596 5601 5602 5600 5597 5597 5595 5592 5591 5590 5588
5488 5489 5491 5493 5496 5493 5500 5511 5510 5519 5522 5536 5550 5554 5554 5557 5562 5564 5559 5560 5565 5571 5570 5564 5564 5563 5563 5566 5567 5570 5571 5573 5572 5579 5582 5580 5586 5591 5592 5594 5595 5594 5594 5596 5602 5603 5599 5598 5595 5592 5588 5587 5586 5583
5483 5485 5486 5488 5491 5495 5503 5511 5511 5515 5525 5531 5540 5549 5552 5552 5557 5553 5553 5558 5567 5569 5565 5563 5562 5558 5558 5559 5559 5562 5567 5571 5575 5578 5581 5582 5585 5588 5592 5594 5597 5596 5597 5601 5601 5601 5598 5594 5592 5586 5584 5585 5583 5580
5477 5476 5480 5480 5493 5497 5514 5519 5517 5520 5529 5535 5539 5538 5543 5547 5544 5544 5550 5555 5560 5562 5563 5564 5563 5563 5562 5560 5562 5566 5571 5572 5574 5576 5585 5589 5590 5587 5589 5592 5594 5599 5604 5601 5600 5600 5595 5591 5588 5584 5581 5580 5580 5581
5475 5483 5483 5499 5504 5507 5519 5526 5528 5527 5530 5533 5536 5543 5546 5543 5542 5546 5552 5556 5560 5564 5565 5565 5565 5566 5568 5572 5572 5575 5583 5586 5586 5582 5588 5592 5593 5591 5590 5591 5592 5598 5603 5604 5599 5595 5591 5588 5585 5581 5578 5577 5578 5578
5482 5497 5493 5503 5509 5517 5518 5524 5527 5527 5531 5537 5543 5542 5542 5543 5548 5551 5557 5564 5565 5570 5572 5572 5571 5573 5576 5576 5580 5586 5588 5592 5591 5588 5590 5592 5595 5595 5596 5595 5595 5600 5603 5602 5599 5597 5591 5587 5583 5580 5577 5575 5574 5574
5492 5502 5506 5508 5509 5513 5516 5520 5524 5529 5533 5537 5541 5546 5546 5547 5548 5557 5561 5568 5573 5576 5577 5577 5577 5580 5584 5589 5593 5585 5578 5577 5582 5583 5585 5590 5596 5598 5600 5600 5598 5597 5597 5595 5593 5590 5589 5585 5581 5578 5576 5574 5571 5573
5490 5502 5507 5510 5511 5514 5519 5522 5526 5531 5542 5541 5540 5541 5546 5553 5561 5564 5570 5571 5572 5571 5569 5573 5579 5587 5587 5583 5581 5587 5585 5577 5580 5586 5586 5583 5586 5587 5589 5590 5590 5589 5586 5585 5585 5585 5585 5583 5580 5578 5576 5574 5572 5572
5501 5506 5509 5513 5515 5518 5524 5527 5531 5538 5542 5544 5547 5548 5550 5557 5569 5576 5577 5579 5577 5576 5580 5583 5586 5583 5582 5581 5582 5579 5577 5577 5581 5579 5576 5575 5579 5582 5585 5584 5585 5586 5583 5580 5579 5578 5576 5575 5574 5572 5571 5570 5569 5567
5509 5511 5514 5517 5520 5527 5532 5538 5541 5544 5547 5551 5555 5551 5556 5563 5571 5577 5579 5582 5583 5584 5582 5580 5582 5583 5581 5580 5580 5579 5576 5578 5578 5583 5586 5582 5577 5577 5576 5579 5582 5580 5577 5576 5576 5574 5572 5571 5569 5567 5567 5567 5568 5565
5515 5519 5522 5525 5528 5537 5541 5544 5546 5547 5554 5554 5557 5562 5565 5564 5562 5569 5575 5581 5579 5578 5579 5580 5578 5580 5587 5589 5590 5590 5590 5586 5583 5587 5592 5588 5583 5582 5580 5579 5578 5575 5574 5573 5572 5569 5567 5567 5566 5566 5565 5565 5565 5565
5523 5526 5527 5529 5533 5540 5549 5552 5557 5560 5561 5561 5564 5570 5569 5568 5567 5562 5574 5573 5573 5575 5577 5580 5583 5585 5587 5590 5591 5592 5590 5589 5590 5589 5587 5585 5584 5579 5575 5575 5575 5574 5573 5574 5575 5570 5570 5569 5567 5566 5565 5564 5565 5566